When you browse on this site, cookies collect data to enhance your experience and personalize the content and advertising you see.
Visit our Privacy Policy to learn more. By continuing to use the site, you agree to this use of cookies and data.
  • In Lithuania
  • List of Countries
  • For 7 days
  • Water Temperature
  • Satellite Maps
  • Weather Map
  • Weather Widgets
  • user-avatar
    Login

    Hourly Weather Koeln

    Today, 16 December, Sunday

    Time Temperature Precipitation Wind Pressure Humidity
    00:00 -2°C° 0 mm 5 mps 756 mmHg 58%
    01:00 -2°C° 0.5 mm 5 mps 755 mmHg 65%
    02:00 -2°C° 0.5 mm 5 mps 755 mmHg 73%
    03:00 -2°C° 0.5 mm 5 mps 754 mmHg 80%
    04:00 -2°C° 0.4 mm 4 mps 754 mmHg 82%
    05:00 -2°C° 0.4 mm 4 mps 753 mmHg 83%
    06:00 -2°C° 0.4 mm 4 mps 753 mmHg 85%
    07:00 -1°C° 0.1 mm 4 mps 753 mmHg 86%
    08:00 0°C° 0.1 mm 3 mps 753 mmHg 86%
    09:00 0°C° 0.1 mm 3 mps 753 mmHg 87%
    10:00 +2°C° 0 mm 2 mps 754 mmHg 88%
    11:00 +2°C° 0 mm 2 mps 754 mmHg 89%
    12:00 +3°C° 0 mm 2 mps 754 mmHg 89%
    13:00 +3°C° 0 mm 2 mps 754 mmHg 91%
    14:00 +3°C° 0 mm 2 mps 754 mmHg 92%
    15:00 +3°C° 0 mm 2 mps 754 mmHg 94%
    16:00 +3°C° 0 mm 2 mps 754 mmHg 94%
    17:00 +3°C° 0 mm 2 mps 754 mmHg 94%
    18:00 +3°C° 0 mm 2 mps 754 mmHg 95%
    19:00 +3°C° 0 mm 2 mps 755 mmHg 95%
    20:00 +3°C° 0 mm 2 mps 755 mmHg 95%
    21:00 +3°C° 0 mm 2 mps 756 mmHg 94%
    22:00 +3°C° 0 mm 2 mps 756 mmHg 94%
    23:00 +3°C° 0 mm 2 mps 756 mmHg 94%

    Tomorrow, 17 December, Monday

    Time Temperature Precipitation Wind Pressure Humidity
    00:00 +3°C° 0 mm 2 mps 756 mmHg 94%
    01:00 +3°C° 0 mm 2 mps 756 mmHg 93%
    02:00 +3°C° 0 mm 2 mps 756 mmHg 93%
    03:00 +3°C° 0 mm 2 mps 756 mmHg 93%
    04:00 +2°C° 0.1 mm 3 mps 756 mmHg 93%
    05:00 +2°C° 0.1 mm 3 mps 756 mmHg 92%
    06:00 +2°C° 0.1 mm 3 mps 756 mmHg 92%
    07:00 +3°C° 0.2 mm 3 mps 757 mmHg 92%
    08:00 +3°C° 0.2 mm 3 mps 757 mmHg 91%
    09:00 +3°C° 0.2 mm 3 mps 758 mmHg 91%
    10:00 +4°C° 0.1 mm 3 mps 758 mmHg 90%
    11:00 +4°C° 0.1 mm 3 mps 759 mmHg 89%
    12:00 +5°C° 0.1 mm 3 mps 759 mmHg 88%
    13:00 +5°C° 0 mm 2 mps 759 mmHg 90%
    14:00 +5°C° 0 mm 2 mps 760 mmHg 92%
    15:00 +5°C° 0 mm 2 mps 760 mmHg 94%
    16:00 +5°C° 0 mm 2 mps 761 mmHg 94%
    17:00 +5°C° 0 mm 2 mps 762 mmHg 95%
    18:00 +5°C° 0 mm 2 mps 762 mmHg 96%
    19:00 +5°C° 0 mm 2 mps 763 mmHg 96%
    20:00 +4°C° 0 mm 2 mps 763 mmHg 95%
    21:00 +4°C° 0 mm 2 mps 764 mmHg 95%
    22:00 +4°C° 0 mm 2 mps 764 mmHg 95%
    23:00 +3°C° 0 mm 2 mps 764 mmHg 95%

    Day after tomorrow, 18 December, Tuesday

    Time Temperature Precipitation Wind Pressure Humidity
    00:00 +3°C° 0 mm 2 mps 764 mmHg 94%
    01:00 +3°C° 0 mm 2 mps 764 mmHg 94%
    02:00 +3°C° 0 mm 2 mps 764 mmHg 94%
    03:00 +3°C° 0 mm 2 mps 764 mmHg 94%
    04:00 +3°C° 0 mm 2 mps 764 mmHg 93%
    05:00 +3°C° 0 mm 2 mps 764 mmHg 93%
    06:00 +2°C° 0 mm 3 mps 764 mmHg 93%
    07:00 +2°C° 0 mm 3 mps 764 mmHg 92%
    08:00 +2°C° 0 mm 3 mps 763 mmHg 91%
    09:00 +3°C° 0 mm 3 mps 763 mmHg 90%
    10:00 +3°C° 0 mm 4 mps 763 mmHg 87%
    11:00 +4°C° 0 mm 4 mps 762 mmHg 84%
    12:00 +5°C° 0 mm 4 mps 762 mmHg 82%
    13:00 +4°C° 0 mm 4 mps 761 mmHg 81%
    14:00 +3°C° 0 mm 5 mps 760 mmHg 81%
    15:00 +2°C° 0 mm 5 mps 759 mmHg 80%
    16:00 +2°C° 0 mm 5 mps 759 mmHg 79%
    17:00 +2°C° 0 mm 5 mps 758 mmHg 79%
    18:00 +2°C° 0 mm 5 mps 758 mmHg 78%
    19:00 +2°C° 0 mm 5 mps 758 mmHg 77%
    20:00 +2°C° 0 mm 5 mps 757 mmHg 76%
    21:00 +2°C° 0 mm 5 mps 757 mmHg 76%
    22:00 +2°C° 0 mm 5 mps 757 mmHg 75%
    23:00 +2°C° 0 mm 5 mps 756 mmHg 75%

    19 December, Wednesday

    Time Temperature Precipitation Wind Pressure Humidity
    00:00 +2°C° 0 mm 5 mps 756 mmHg 74%
    01:00 +3°C° 0.1 mm 5 mps 756 mmHg 76%
    02:00 +3°C° 0.1 mm 5 mps 756 mmHg 78%
    03:00 +3°C° 0.1 mm 5 mps 756 mmHg 80%
    04:00 +4°C° 0.1 mm 4 mps 756 mmHg 82%
    05:00 +5°C° 0.1 mm 4 mps 756 mmHg 84%
    06:00 +5°C° 0.1 mm 3 mps 756 mmHg 87%
    07:00 +5°C° 0 mm 3 mps 756 mmHg 88%
    08:00 +5°C° 0 mm 3 mps 756 mmHg 89%
    09:00 +5°C° 0 mm 3 mps 756 mmHg 89%
    10:00 +7°C° 0 mm 2 mps 756 mmHg 88%
    11:00 +7°C° 0 mm 2 mps 756 mmHg 87%
    12:00 +8°C° 0 mm 2 mps 756 mmHg 85%
    13:00 +7°C° 0 mm 2 mps 756 mmHg 87%
    14:00 +7°C° 0 mm 2 mps 756 mmHg 89%
    15:00 +6°C° 0 mm 2 mps 756 mmHg 90%
    16:00 +6°C° 0 mm 2 mps 756 mmHg 91%
    17:00 +6°C° 0 mm 2 mps 756 mmHg 92%
    18:00 +5°C° 0 mm 2 mps 756 mmHg 92%
    19:00 +5°C° 0 mm 2 mps 756 mmHg 92%
    20:00 +5°C° 0 mm 2 mps 756 mmHg 93%
    21:00 +5°C° 0 mm 2 mps 756 mmHg 93%
    22:00 +5°C° 0 mm 2 mps 756 mmHg 93%
    23:00 +5°C° 0 mm 2 mps 756 mmHg 93%

    20 December, Thursday

    Time Temperature Precipitation Wind Pressure Humidity
    00:00 +5°C° 0 mm 2 mps 756 mmHg 93%
    01:00 +5°C° 0.2 mm 2 mps 756 mmHg 94%
    02:00 +5°C° 0.2 mm 2 mps 756 mmHg 94%
    03:00 +5°C° 0.2 mm 2 mps 756 mmHg 95%
    04:00 +5°C° 0.3 mm 2 mps 757 mmHg 95%
    05:00 +5°C° 0.3 mm 2 mps 757 mmHg 95%
    06:00 +5°C° 0.3 mm 2 mps 757 mmHg 95%
    07:00 +5°C° 0 mm 2 mps 757 mmHg 95%
    08:00 +5°C° 0 mm 2 mps 758 mmHg 94%
    09:00 +5°C° 0 mm 2 mps 758 mmHg 93%
    10:00 +6°C° 0 mm 2 mps 758 mmHg 89%
    11:00 +5°C° 0 mm 3 mps 758 mmHg 85%
    12:00 +7°C° 0 mm 3 mps 758 mmHg 81%
    13:00 +7°C° 0 mm 3 mps 758 mmHg 83%
    14:00 +5°C° 0 mm 3 mps 758 mmHg 84%
    15:00 +5°C° 0 mm 3 mps 758 mmHg 86%
    16:00 +4°C° 0 mm 3 mps 759 mmHg 87%
    17:00 +4°C° 0 mm 3 mps 759 mmHg 87%
    18:00 +4°C° 0 mm 3 mps 759 mmHg 88%
    19:00 +4°C° 0.2 mm 3 mps 759 mmHg 88%
    20:00 +4°C° 0.2 mm 3 mps 759 mmHg 87%
    21:00 +4°C° 0.2 mm 3 mps 759 mmHg 87%
    22:00 +4°C° 0.4 mm 3 mps 759 mmHg 88%
    23:00 +4°C° 0.4 mm 3 mps 759 mmHg 88%

    21 December, Friday

    Time Temperature Precipitation Wind Pressure Humidity
    00:00 +4°C° 0.4 mm 3 mps 759 mmHg 89%
    01:00 +4°C° 0.1 mm 3 mps 758 mmHg 89%
    02:00 +4°C° 0.1 mm 3 mps 758 mmHg 90%
    03:00 +4°C° 0.1 mm 3 mps 758 mmHg 91%
    04:00 +4°C° 0 mm 3 mps 758 mmHg 91%
    05:00 +5°C° 0 mm 2 mps 758 mmHg 92%
    06:00 +5°C° 0 mm 2 mps 758 mmHg 92%
    07:00 +4°C° 0 mm 3 mps 758 mmHg 91%
    08:00 +4°C° 0 mm 3 mps 758 mmHg 89%
    09:00 +5°C° 0 mm 3 mps 757 mmHg 88%
    10:00 +5°C° 0.7 mm 4 mps 757 mmHg 87%
    11:00 +6°C° 0.7 mm 4 mps 756 mmHg 87%
    12:00 +6°C° 0.7 mm 5 mps 755 mmHg 86%
    13:00 +6°C° 0.9 mm 5 mps 754 mmHg 85%
    14:00 +6°C° 0.9 mm 5 mps 753 mmHg 84%
    15:00 +5°C° 0.9 mm 6 mps 752 mmHg 83%
    16:00 +5°C° 1 mm 6 mps 752 mmHg 84%
    17:00 +7°C° 1 mm 6 mps 751 mmHg 85%
    18:00 +7°C° 1 mm 6 mps 751 mmHg 86%
    19:00 +7°C° 0.4 mm 5 mps 751 mmHg 86%
    20:00 +8°C° 0.4 mm 5 mps 751 mmHg 86%
    21:00 +8°C° 0.4 mm 5 mps 752 mmHg 86%
    22:00 +8°C° 0 mm 5 mps 752 mmHg 87%
    23:00 +7°C° 0 mm 5 mps 753 mmHg 87%
    Show more